Trapani, Italy

8:55 PM CEST on October 19, 2017 (GMT +0200)
Birgi Mil

Weather History for LICT - January, 2013

Change the Weather History Date:

Monday, January 21, 2013

  Actual Average Record
Temperature  
Mean Temperature 54 °F -  
Max Temperature 59 °F 60 °F 64 °F (1997)
Min Temperature 50 °F 46 °F 32 °F (2000)
Degree Days  
Heating Degree Days 10    
Growing Degree Days 4 (Base 50)    
Moisture  
Dew Point 50 °F    
Average Humidity 85    
Maximum Humidity 94    
Minimum Humidity 61    
Precipitation  
Precipitation 0.02 in 0.06 in - ()
Sea Level Pressure  
Sea Level Pressure 29.57 in    
Wind  
Wind Speed 12 mph ()    
Max Wind Speed 24 mph    
Max Gust Speed 34 mph    
Visibility 6.3 miles    
Events Rain    
Averages and records for this station are not official NWS values.
T = Trace of Precipitation, MM = Missing Value Source: Averaged Metar Reports

Daily Weather History Graph

Daily Weather History Graph

Search for Another Location

Airport or City:

Trip Planner

Search our weather history database for the weather conditions in past years. The results will help you decide how hot, cold, wet, or windy it might be!

Date:

Astronomy

Jan. 21, 2013 Rise Set
Actual Time 7:21 AM CET 5:21 PM CET
Civil Twilight 6:53 AM CET 5:49 PM CET
Nautical Twilight 6:21 AM CET 6:21 PM CET
Astronomical Twilight 5:50 AM CET 6:52 PM CET
Moon 12:49 PM CET (1/21) 2:34 AM CET (1/21)
Length of Visible Light 10h 55m
Length of Day
9h 59m
Waxing Gibbous, 73% of the Moon is Illuminated
Jan 21
Waxing Gibbous
Jan 27
Full
Feb 3
Last Quarter
Feb 10
New
Feb 17
First Quarter

Hourly Weather History & Observations

Time (CET) Temp. Dew Point Humidity Pressure Visibility Wind Dir Wind Speed Gust Speed Precip Events Conditions
12:55 AM 51.8 °F 48.2 °F 88% 29.44 in 6.2 mi NW 4.6 mph - N/A Rain Light Rain
1:00 AM 52 °F 49 °F 85% 29.47 in 7 mi NW 4.6 mph - - Rain Light Rain
1:55 AM 51.8 °F 48.2 °F 88% 29.47 in 6.2 mi WSW 6.9 mph - N/A Rain Light Rain
2:55 AM 51.8 °F 48.2 °F 88% 29.47 in 6.2 mi SW 4.6 mph - N/A Rain Light Rain
3:55 AM 50.0 °F 48.2 °F 94% 29.44 in 6.2 mi SW 2.3 mph - N/A Rain Light Rain
4:55 AM 50.0 °F 48.2 °F 94% 29.44 in 6.2 mi SW 2.3 mph - N/A Rain Light Rain
5:55 AM 53.6 °F 50.0 °F 88% 29.47 in 6.2 mi West 24.2 mph - N/A   Scattered Clouds
6:55 AM 53.6 °F 50.0 °F 88% 29.50 in 6.2 mi West 23.0 mph - N/A   Scattered Clouds
7:00 AM 53 °F 49 °F 82% 29.52 in 7 mi West 23.0 mph - -   Partly Cloudy
7:55 AM 53.6 °F 50.0 °F 88% 29.53 in 6.2 mi WNW 23.0 mph 34.5 mph N/A Rain Light Rain
8:55 AM 53.6 °F 46.4 °F 77% 29.56 in 6.2 mi WNW 21.9 mph 33.4 mph N/A   Scattered Clouds
9:55 AM 53.6 °F 46.4 °F 77% 29.62 in 6.2 mi WNW 23.0 mph - N/A   Scattered Clouds
10:55 AM 55.4 °F 46.4 °F 72% 29.62 in 6.2 mi West 20.7 mph - N/A   Scattered Clouds
11:55 AM 57.2 °F 48.2 °F 72% 29.62 in 6.2 mi WNW 20.7 mph - N/A   Scattered Clouds
12:55 PM 57.2 °F 46.4 °F 67% 29.62 in 6.2 mi West 16.1 mph - N/A   Scattered Clouds
1:00 PM 56 °F 46 °F 61% 29.62 in 11 mi West 16.1 mph - -   Partly Cloudy
1:55 PM 59.0 °F 51.8 °F 77% 29.59 in 6.2 mi WSW 16.1 mph - N/A   Scattered Clouds
2:55 PM 57.2 °F 53.6 °F 88% 29.62 in 6.2 mi WSW 19.6 mph - N/A   Scattered Clouds
3:55 PM 55.4 °F 51.8 °F 88% 29.62 in 6.2 mi SW 15.0 mph - N/A   Scattered Clouds
4:55 PM 55.4 °F 51.8 °F 88% 29.62 in 6.2 mi SW 12.7 mph - N/A   Scattered Clouds
5:55 PM 55.4 °F 51.8 °F 88% 29.62 in 6.2 mi SW 15.0 mph - N/A Rain Light Rain
6:55 PM 55.4 °F 51.8 °F 88% 29.62 in 6.2 mi SW 12.7 mph - N/A Rain Light Rain
7:00 PM 55 °F 51 °F 83% 29.64 in 7 mi SW 12.7 mph - - Rain Light Rain
7:55 PM 55.4 °F 51.8 °F 88% 29.65 in 5.0 mi SW 17.3 mph - N/A Rain Rain
8:55 PM 53.6 °F 50.0 °F 88% 29.65 in 5.0 mi SW 10.4 mph - N/A Rain Rain
9:55 PM 53.6 °F 51.8 °F 94% 29.65 in 5.6 mi SW 23.0 mph - N/A Rain Rain
10:55 PM 53.6 °F 51.8 °F 94% 29.65 in 5.6 mi SW 20.7 mph - N/A Rain Rain
11:55 PM 53.6 °F 51.8 °F 94% 29.65 in 6.2 mi SW 15.0 mph - N/A   Scattered Clouds